TAM3277 SBCH-SBGR

Flight info

Callsign TAM3277
Flight time N/A
Altitude 39000
Route IMBIM UM400 SAVLU UZ121 BUXUK
Aircraft A20N/M-SDE2E3FGHIJ1RWXY/LB1

Departure

Time 2026-04-25 22:30
Airport Serafin Enoss Bertaso Airport (SBCH)

Arrival

Time N/A
Airport São Paulo/Guarulhos–Governor André Franco Montoro International Airport (SBGR)
Time Latitude Longitude Altitude Speed Heading
2026-04-25 22:02 -27.13236 -52.66058 2105 ft 0 kts 60°
2026-04-25 22:21 -27.13241 -52.66067 2104 ft 3 kts 60°
2026-04-25 22:22 -27.13259 -52.66103 2102 ft 6 kts 60°
2026-04-25 22:22 -27.13291 -52.66165 2098 ft 10 kts 60°
2026-04-25 22:22 -27.13327 -52.66236 2093 ft 8 kts 69°
2026-04-25 22:22 -27.13333 -52.66259 2092 ft 0 kts 108°
2026-04-25 22:25 -27.13336 -52.66249 2092 ft 4 kts 106°
2026-04-25 22:25 -27.13346 -52.66188 2094 ft 11 kts 100°
2026-04-25 22:26 -27.13360 -52.66082 2099 ft 15 kts 97°
2026-04-25 22:26 -27.13379 -52.65948 2106 ft 18 kts 99°
2026-04-25 22:26 -27.13398 -52.65814 2113 ft 15 kts 99°
2026-04-25 22:26 -27.13415 -52.65691 2118 ft 18 kts 99°
2026-04-25 22:27 -27.13436 -52.65545 2123 ft 17 kts 99°
2026-04-25 22:27 -27.13453 -52.65418 2126 ft 16 kts 99°
2026-04-25 22:27 -27.13473 -52.65282 2128 ft 17 kts 99°
2026-04-25 22:27 -27.13490 -52.65155 2130 ft 15 kts 98°
2026-04-25 22:28 -27.13506 -52.65043 2135 ft 14 kts 100°
2026-04-25 22:28 -27.13522 -52.64940 2139 ft 4 kts 104°
2026-04-25 22:28 -27.13532 -52.64923 2139 ft 3 kts 139°
2026-04-25 22:28 -27.13552 -52.64910 2140 ft 3 kts 144°
2026-04-25 22:29 -27.13561 -52.64885 2141 ft 3 kts 69°
2026-04-25 22:29 -27.13535 -52.64878 2141 ft 5 kts 329°
2026-04-25 22:29 -27.13526 -52.64900 2140 ft 0 kts 279°
2026-04-25 22:30 -27.13409 -52.65735 2116 ft 122 kts 279°
2026-04-25 22:30 -27.13249 -52.66895 2119 ft 172 kts 279°
2026-04-25 22:30 -27.13069 -52.68243 2652 ft 178 kts 278°
2026-04-25 22:30 -27.12943 -52.69168 3015 ft 186 kts 279°
2026-04-25 22:31 -27.12655 -52.71188 3656 ft 208 kts 279°
2026-04-25 22:31 -27.12392 -52.72865 4046 ft 232 kts 286°
2026-04-25 22:31 -27.11531 -52.74467 4563 ft 251 kts 320°
2026-04-25 22:31 -27.09937 -52.75304 5239 ft 265 kts 351°
2026-04-25 22:32 -27.08124 -52.75031 6117 ft 274 kts 22°
2026-04-25 22:32 -27.06636 -52.73586 7017 ft 285 kts 56°
2026-04-25 22:32 -27.06069 -52.71445 7800 ft 296 kts 89°
2026-04-25 22:32 -27.06432 -52.69083 8578 ft 303 kts 106°
2026-04-25 22:33 -27.07094 -52.66782 9332 ft 310 kts 108°
2026-04-25 22:33 -27.07799 -52.64409 10106 ft 316 kts 108°
2026-04-25 22:33 -27.08475 -52.61988 10744 ft 325 kts 107°
2026-04-25 22:33 -27.09124 -52.59518 11395 ft 333 kts 106°
2026-04-25 22:34 -27.09763 -52.56981 12132 ft 336 kts 105°
2026-04-25 22:34 -27.10391 -52.54429 12861 ft 340 kts 105°
2026-04-25 22:34 -27.11010 -52.51877 13525 ft 344 kts 105°
2026-04-25 22:34 -27.11638 -52.49278 14179 ft 349 kts 105°
2026-04-25 22:35 -27.12287 -52.46580 14804 ft 355 kts 105°
2026-04-25 22:35 -27.12935 -52.43886 15436 ft 359 kts 105°
2026-04-25 22:35 -27.13588 -52.41165 16051 ft 364 kts 105°
2026-04-25 22:35 -27.14255 -52.38389 16637 ft 369 kts 105°
2026-04-25 22:36 -27.14918 -52.35623 17201 ft 375 kts 105°
2026-04-25 22:36 -27.15598 -52.32778 17765 ft 379 kts 105°
2026-04-25 22:36 -27.16277 -52.29919 18292 ft 384 kts 105°
2026-04-25 22:36 -27.16974 -52.26988 18822 ft 389 kts 105°
2026-04-25 22:37 -27.17675 -52.24047 19332 ft 394 kts 105°
2026-04-25 22:37 -27.18382 -52.21080 19830 ft 399 kts 105°
2026-04-25 22:37 -27.19110 -52.18015 20325 ft 404 kts 105°
2026-04-25 22:37 -27.19832 -52.14986 20820 ft 408 kts 105°
2026-04-25 22:38 -27.20580 -52.11843 21299 ft 413 kts 105°
2026-04-25 22:38 -27.21320 -52.08723 21763 ft 418 kts 105°
2026-04-25 22:38 -27.21967 -52.05545 22225 ft 423 kts 95°
2026-04-25 22:38 -27.21852 -52.02226 22684 ft 421 kts 73°
2026-04-25 22:39 -27.20899 -51.99161 23182 ft 417 kts 60°
2026-04-25 22:39 -27.19666 -51.96210 23629 ft 421 kts 58°
2026-04-25 22:39 -27.18396 -51.93220 24058 ft 426 kts 59°
2026-04-25 22:39 -27.17156 -51.90178 24513 ft 431 kts 60°
2026-04-25 22:40 -27.15941 -51.87096 24946 ft 436 kts 61°
2026-04-25 22:40 -27.14715 -51.83951 25364 ft 441 kts 61°
2026-04-25 22:40 -27.13489 -51.80790 25803 ft 445 kts 61°
2026-04-25 22:40 -27.12250 -51.77607 26218 ft 449 kts 61°
2026-04-25 22:41 -27.10980 -51.74350 26635 ft 453 kts 61°
2026-04-25 22:41 -27.09711 -51.71097 27059 ft 456 kts 61°
2026-04-25 22:41 -27.08421 -51.67793 27464 ft 460 kts 61°
2026-04-25 22:41 -27.07729 -51.66022 27689 ft 462 kts 60°
2026-04-25 22:42 -27.07129 -51.64488 27869 ft 463 kts 61°
2026-04-25 22:42 -27.06715 -51.63432 27983 ft 465 kts 61°
2026-04-25 22:42 -27.06040 -51.61708 28176 ft 466 kts 61°
2026-04-25 22:42 -27.04944 -51.58910 28526 ft 468 kts 61°
2026-04-25 22:43 -27.04080 -51.56707 28783 ft 470 kts 61°
2026-04-25 22:43 -27.03207 -51.54480 29021 ft 473 kts 61°
2026-04-25 22:43 -27.02343 -51.52278 29254 ft 475 kts 61°
2026-04-25 22:43 -27.01001 -51.48859 29655 ft 477 kts 61°
2026-04-25 22:44 -26.99630 -51.45369 30046 ft 479 kts 61°
2026-04-25 22:44 -26.98246 -51.41847 30437 ft 481 kts 61°
2026-04-25 22:44 -26.96859 -51.38322 30811 ft 483 kts 62°
2026-04-25 22:44 -26.96417 -51.37201 30921 ft 484 kts 62°
2026-04-25 22:45 -26.95078 -51.33805 31244 ft 486 kts 61°
2026-04-25 22:45 -26.93729 -51.30364 31532 ft 488 kts 61°
2026-04-25 22:45 -26.92331 -51.26802 31842 ft 490 kts 61°
2026-04-25 22:45 -26.90925 -51.23230 32152 ft 492 kts 61°
2026-04-25 22:46 -26.89521 -51.19672 32460 ft 493 kts 61°
2026-04-25 22:46 -26.89036 -51.18454 32556 ft 493 kts 61°
2026-04-25 22:46 -26.87633 -51.14942 32825 ft 495 kts 61°
2026-04-25 22:46 -26.86208 -51.11383 33101 ft 497 kts 61°
2026-04-25 22:47 -26.84753 -51.07731 33379 ft 499 kts 61°
2026-04-25 22:47 -26.83301 -51.04078 33680 ft 501 kts 61°
2026-04-25 22:47 -26.82153 -51.01189 33878 ft 503 kts 61°
2026-04-25 22:47 -26.80720 -50.97575 34143 ft 504 kts 61°
2026-04-25 22:48 -26.79296 -50.93986 34440 ft 505 kts 61°
2026-04-25 22:48 -26.77860 -50.90364 34705 ft 506 kts 61°
2026-04-25 22:48 -26.76434 -50.86782 34946 ft 507 kts 61°
2026-04-25 22:48 -26.74988 -50.83156 35182 ft 509 kts 61°
2026-04-25 22:49 -26.73547 -50.79561 35433 ft 509 kts 61°
2026-04-25 22:49 -26.72082 -50.75908 35771 ft 508 kts 61°
2026-04-25 22:49 -26.70614 -50.72250 36065 ft 507 kts 61°
2026-04-25 22:49 -26.69182 -50.68676 36078 ft 507 kts 61°
2026-04-25 22:50 -26.66313 -50.61515 36087 ft 507 kts 62°
2026-04-25 22:50 -26.63427 -50.54326 36084 ft 506 kts 62°
2026-04-25 22:51 -26.60463 -50.46862 36083 ft 506 kts 62°
2026-04-25 22:51 -26.57511 -50.39372 36078 ft 506 kts 62°
2026-04-25 22:52 -26.54573 -50.32011 36068 ft 505 kts 61°
2026-04-25 22:52 -26.52074 -50.25847 36061 ft 504 kts 61°
2026-04-25 22:53 -26.48588 -50.17267 36053 ft 504 kts 61°
2026-04-25 22:53 -26.46157 -50.11280 35808 ft 503 kts 61°
2026-04-25 22:54 -26.44139 -50.06321 34320 ft 514 kts 61°
2026-04-25 22:54 -26.42550 -50.02423 32834 ft 528 kts 61°
2026-04-25 22:54 -26.40914 -49.98410 31469 ft 538 kts 61°
2026-04-25 22:54 -26.39344 -49.94558 30668 ft 535 kts 62°
2026-04-25 22:55 -26.37777 -49.90700 30197 ft 526 kts 62°
2026-04-25 22:55 -26.36243 -49.86933 29737 ft 518 kts 61°
2026-04-25 22:55 -26.34711 -49.83183 29301 ft 509 kts 61°
2026-04-25 22:55 -26.33285 -49.79445 28902 ft 504 kts 70°
2026-04-25 22:56 -26.32762 -49.75589 28561 ft 499 kts 91°
2026-04-25 22:56 -26.33373 -49.71871 28252 ft 486 kts 114°
2026-04-25 22:56 -26.34990 -49.68702 27953 ft 464 kts 136°
2026-04-25 22:56 -26.37376 -49.66447 27655 ft 435 kts 160°
2026-04-25 22:57 -26.40092 -49.65404 27374 ft 399 kts 184°
2026-04-25 22:57 -26.42728 -49.65604 27097 ft 361 kts 208°
2026-04-25 22:57 -26.44879 -49.66758 26842 ft 335 kts 223°
2026-04-25 22:57 -26.45909 -49.67590 26683 ft 326 kts 229°
2026-04-25 22:58 -26.46563 -49.68224 26571 ft 320 kts 232°
2026-04-25 22:58 -26.47589 -49.69435 26369 ft 310 kts 239°
2026-04-25 22:58 -26.48026 -49.70063 26275 ft 305 kts 242°
2026-04-25 22:58 -26.48769 -49.71384 26083 ft 296 kts 248°
2026-04-25 22:59 -26.48974 -49.71833 26020 ft 294 kts 250°
2026-04-25 22:59 -26.49160 -49.72267 25957 ft 292 kts 251°
2026-04-25 22:59 -26.49617 -49.73383 25796 ft 288 kts 252°
2026-04-25 22:59 -26.49924 -49.74290 25619 ft 285 kts 259°
2026-04-25 23:00 -26.50034 -49.74800 25466 ft 284 kts 264°
2026-04-25 23:00 -26.50087 -49.76202 24972 ft 288 kts 276°
2026-04-25 23:00 -26.49960 -49.77147 24628 ft 293 kts 282°
2026-04-25 23:00 -26.49722 -49.78062 24282 ft 298 kts 288°
2026-04-25 23:01 -26.49317 -49.79070 23940 ft 305 kts 295°
2026-04-25 23:01 -26.48946 -49.79744 23777 ft 311 kts 300°
2026-04-25 23:01 -26.48013 -49.80971 23448 ft 323 kts 311°
2026-04-25 23:01 -26.46816 -49.81979 23137 ft 334 kts 322°
2026-04-25 23:02 -26.45445 -49.82664 22830 ft 345 kts 334°
2026-04-25 23:02 -26.44142 -49.82970 22576 ft 357 kts 346°
2026-04-25 23:02 -26.42948 -49.82992 22336 ft 368 kts 356°
2026-04-25 23:02 -26.39599 -49.81873 21776 ft 387 kts 14°
2026-04-25 23:03 -26.38742 -49.81470 21641 ft 387 kts 14°
2026-04-25 23:03 -26.37942 -49.81097 22631 ft 386 kts 26°